[[{"header":{"parameterUnit":"m.s-1","parameterCategory":1,"la1":30.2991,"la2":30.254,"lo1":-89.0895,"lo2":-89.0444,"dy":0.0017,"dx":0.0017,"nx":28,"ny":28,"refTime":"2025-11-24T09:00:00:Z","depth":0,"parameterNumber":2,"parameterNumberName":"U-component_of_WINDS"},"data":[0,0,0,0,0,0,0,0,0,0,0,0,0,0,0,0,0,0,0,0,0,0,0,0,0,0,0,0,0,0,0,0,0,0,0,0,0,0,0,0,0,0,0,0,0,0,0,0,0,0,0,0,0,0,0,0,0,0,-1.945,-1.945,0,-1.9498,-1.9499,-1.9499,-1.9511,-1.9511,-1.951,-1.951,-1.9557,-1.9559,-1.956,0,0,0,0,0,0,0,0,0,0,0,0,0,-1.9366,-1.9368,-1.945,-1.945,-1.9451,-1.9498,-1.9499,-1.9499,-1.9511,-1.9511,-1.951,-1.951,-1.9557,-1.9558,-1.956,0,0,0,0,0,0,0,0,0,0,0,0,0,-1.9407,-1.9368,-1.945,-1.9462,-1.9464,-1.9498,-1.9499,-1.95,-1.9511,-1.9511,-1.951,-1.951,-1.9556,-1.9558,-1.956,-1.9584,0,0,-1.9568,-1.9569,0,0,0,0,0,0,0,0,-1.9405,-1.941,-1.946,-1.9462,-1.9464,-1.9498,-1.9487,-1.9528,-1.9511,-1.9493,-1.951,-1.9509,-1.9538,-1.9541,-1.9551,-1.9586,-1.9588,-1.9568,-1.9569,-1.957,-1.9571,0,0,0,0,0,0,0,-1.9402,-1.9408,-1.9469,-1.9461,-1.9463,-1.9465,-1.9471,-1.9494,-1.9517,-1.9495,-1.9496,-1.9501,-1.9538,-1.9549,-1.9553,-1.9589,-1.9568,-1.957,-1.9571,-1.9572,-1.9647,-1.9648,0,0,0,0,0,0,-1.9397,-1.9406,-1.9467,-1.947,-1.9433,-1.9467,-1.9473,-1.9487,-1.9517,-1.9521,-1.9502,-1.9502,-1.9545,-1.955,-1.9554,-1.9584,-1.957,-1.9572,-1.9574,-1.9647,-1.9647,-1.9648,0,0,0,0,0,0,-1.9395,-1.9403,-1.9465,-1.9438,-1.9447,-1.9469,-1.9485,-1.9489,-1.9499,-1.9523,-1.9526,-1.9508,-1.9545,-1.9551,-1.9577,-1.9586,-1.9573,-1.9575,-1.9646,-1.9647,-1.9648,-1.9645,0,0,0,0,0,0,-1.9393,-1.9402,-1.9411,-1.9439,-1.9448,-1.9488,-1.9486,-1.949,-1.9504,-1.9504,-1.953,-1.9534,-1.9545,-1.9574,-1.9579,-1.9589,-1.9577,-1.9645,-1.9646,-1.9647,-1.9644,-1.9645,-1.9647,0,0,0,0,0,-1.939,-1.9408,-1.9412,-1.9419,-1.946,-1.9488,-1.9493,-1.9507,-1.9504,-1.9514,-1.9529,-1.9533,-1.9585,-1.9576,-1.9583,-1.9593,-1.9645,-1.9646,-1.9647,-1.9643,-1.9645,-1.9647,0,0,0,0,0,0,-1.9379,-1.9411,-1.9416,-1.9443,-1.9463,-1.949,-1.9502,-1.9508,-1.9528,-1.9528,-1.9544,-1.9549,-1.9574,-1.9587,-1.9577,-1.9619,-1.9615,-1.9617,-1.9609,-1.9611,-1.9612,-1.9608,-1.9579,0,0,0,0,0,-1.9381,-1.9401,-1.9428,-1.9449,-1.9459,-1.9479,-1.9492,-1.9501,-1.9521,-1.9529,-1.9546,-1.9566,-1.9587,-1.96,-1.962,-1.9647,-1.9652,-1.9657,-1.9659,-1.9659,-1.9661,-1.9677,-1.9679,-1.9653,-1.9653,-1.9653,0,0,-1.9382,-1.9403,-1.9414,-1.9448,-1.9464,-1.9484,-1.9486,-1.9507,-1.9522,-1.9532,-1.9558,-1.9572,-1.9594,-1.9621,-1.9633,-1.9632,-1.967,-1.9661,-1.9662,-1.9663,-1.9678,-1.9681,-1.9683,-1.9653,-1.9653,-1.9653,0,0,-1.9396,-1.9414,-1.9434,-1.9451,-1.9476,-1.949,-1.9495,-1.9521,-1.9531,-1.9557,-1.9566,-1.9584,-1.9619,-1.9635,-1.9648,-1.9671,-1.9675,-1.9677,-1.9683,-1.9698,-1.97,-1.9702,-1.9709,-1.9712,-1.9679,-1.9679,-1.9679,0,-1.9395,-1.9427,-1.9443,-1.9465,-1.9479,-1.9491,-1.9511,-1.9527,-1.9557,-1.9567,-1.9565,-1.9611,-1.9627,-1.9657,-1.9663,-1.9673,-1.9679,-1.9673,-1.9698,-1.97,-1.9702,-1.971,-1.9713,-1.9679,-1.9679,-1.9679,-1.9679,0,-1.9424,-1.9446,-1.946,-1.949,-1.9506,-1.9527,-1.9546,-1.9561,-1.9569,-1.9583,-1.961,-1.963,-1.9655,-1.9663,-1.9671,-1.9696,-1.9694,-1.9695,-1.9691,-1.9705,-1.9712,-1.9715,-1.9679,-1.9679,-1.9679,-1.9679,0,0,-1.9431,-1.9472,-1.9476,-1.949,-1.952,-1.9537,-1.9559,-1.9585,-1.9597,-1.9618,-1.9636,-1.9667,-1.9669,-1.9683,-1.9693,-1.9707,-1.9723,-1.9706,-1.9707,-1.9708,-1.9751,-1.9749,-1.9752,-1.9727,-1.9728,-1.9728,-1.9749,0,-1.9448,-1.9488,-1.9504,-1.9536,-1.9557,-1.9569,-1.9588,-1.9608,-1.9622,-1.9642,-1.9657,-1.9678,-1.9679,-1.9688,-1.9702,-1.9718,-1.9732,-1.9717,-1.9743,-1.9744,-1.9736,-1.9756,-1.9754,-1.9773,-1.9752,-1.9753,-1.9753,0,-1.9473,-1.9496,-1.953,-1.9558,-1.9568,-1.9584,-1.961,-1.9628,-1.9652,-1.9661,-1.9678,-1.9688,-1.9711,-1.9707,-1.9739,-1.9729,-1.9741,-1.9751,-1.9752,-1.9754,-1.9748,-1.9758,-1.9779,-1.9782,-1.9758,-1.9757,-1.9757,0,-1.9474,-1.9513,-1.9539,-1.9551,-1.9585,-1.9596,-1.9611,-1.9634,-1.9649,-1.9671,-1.968,-1.9705,-1.9718,-1.9736,-1.9753,-1.9748,-1.9783,-1.978,-1.9791,-1.9791,-1.9797,-1.9796,-1.9819,-1.9806,-1.9806,-1.9806,-1.9806,0,-1.9491,-1.9511,-1.954,-1.9556,-1.9579,-1.9598,-1.962,-1.9636,-1.9656,-1.9675,-1.9688,-1.9705,-1.9726,-1.9746,-1.9759,-1.9783,-1.9789,-1.9797,-1.98,-1.9795,-1.9794,-1.9802,-1.9801,-1.9807,-1.9807,-1.9807,-1.9806,0,-1.9495,-1.9516,-1.9544,-1.9575,-1.9583,-1.9599,-1.9624,-1.964,-1.9656,-1.9679,-1.9686,-1.971,-1.9734,-1.9753,-1.9784,-1.9793,-1.9819,-1.9822,-1.9811,-1.9812,-1.9822,-1.982,-1.985,-1.9855,-1.9839,-1.984,-1.984,0,-1.9504,-1.9521,-1.9553,-1.9567,-1.9582,-1.9604,-1.962,-1.9639,-1.9655,-1.9684,-1.9696,-1.9721,-1.9743,-1.9781,-1.9801,-1.9825,-1.9829,-1.9838,-1.9832,-1.9827,-1.9828,-1.9827,-1.9828,-1.9838,-1.9838,-1.9838,-1.9838,0,-1.9518,-1.9528,-1.955,-1.9576,-1.9595,-1.9616,-1.9637,-1.9648,-1.9671,-1.9688,-1.9714,-1.9731,-1.9764,-1.9788,-1.9815,-1.983,-1.9838,-1.984,-1.9844,-1.9838,-1.9831,-1.9835,-1.9812,-1.9839,-1.9839,-1.9839,-1.9839,-1.9839,-1.9525,-1.954,-1.9566,-1.959,-1.9609,-1.9629,-1.9646,-1.9664,-1.9686,-1.9714,-1.9725,-1.9751,-1.9775,-1.9812,-1.9827,-1.9848,-1.9848,-1.9853,-1.9854,-1.9855,-1.9854,-1.9829,-1.9853,-1.9853,-1.9853,-1.9853,-1.9853,0,-1.9539,-1.9556,-1.9579,-1.9609,-1.9629,-1.9636,-1.9661,-1.9676,-1.97,-1.9722,-1.9743,-1.9773,-1.9798,-1.982,-1.9846,-1.9858,-1.9863,-1.9864,-1.9863,-1.9866,-1.9853,-1.9847,-1.9861,-1.9861,-1.9861,-1.9861,-1.9861,-1.9861,-1.9548,-1.9574,-1.9587,-1.9623,-1.964,-1.9667,-1.968,-1.9699,-1.9717,-1.975,-1.9771,-1.9786,-1.9808,-1.9836,-1.9859,-1.9866,-1.9874,-1.9875,-1.9882,-1.9868,-1.9867,-1.9866,-1.9861,-1.9877,-1.9877,-1.9893,-1.9893,-1.9893]},{"header":{"parameterUnit":"m.s-1","parameterCategory":1,"la1":30.2991,"la2":30.254,"lo1":-89.0895,"lo2":-89.0444,"dy":0.0017,"dx":0.0017,"nx":28,"ny":28,"refTime":"2025-11-24T09:00:00:Z","depth":0,"parameterNumber":3,"parameterNumberName":"V-component_of_WINDS"},"data":[0,0,0,0,0,0,0,0,0,0,0,0,0,0,0,0,0,0,0,0,0,0,0,0,0,0,0,0,0,0,0,0,0,0,0,0,0,0,0,0,0,0,0,0,0,0,0,0,0,0,0,0,0,0,0,0,0,0,4.6963,4.6965,0,4.7096,4.7098,4.7099,4.7118,4.7117,4.7116,4.7115,4.7248,4.7253,4.7257,0,0,0,0,0,0,0,0,0,0,0,0,0,4.6724,4.6728,4.6963,4.6965,4.6967,4.7096,4.7098,4.71,4.7119,4.7117,4.7116,4.7114,4.7247,4.7252,4.7258,0,0,0,0,0,0,0,0,0,0,0,0,0,4.684,4.673,4.6963,4.6992,4.6996,4.7096,4.7098,4.71,4.7119,4.7117,4.7115,4.7114,4.7245,4.7252,4.7259,4.7339,0,0,4.728,4.7283,0,0,0,0,0,0,0,0,4.6833,4.6848,4.6986,4.699,4.6994,4.7089,4.7063,4.718,4.7119,4.7072,4.7115,4.7113,4.7197,4.7207,4.7236,4.7345,4.7351,4.7281,4.7285,4.7288,4.729,0,0,0,0,0,0,0,4.6825,4.6843,4.7016,4.6988,4.6993,4.6997,4.7012,4.7085,4.7143,4.7076,4.7078,4.7093,4.7199,4.723,4.724,4.7353,4.7281,4.7287,4.7291,4.7294,4.7537,4.7539,0,0,0,0,0,0,4.6812,4.6836,4.7012,4.702,4.6908,4.7003,4.7019,4.706,4.7142,4.7153,4.7095,4.7094,4.7218,4.7231,4.7244,4.7346,4.7288,4.7295,4.7299,4.7534,4.7537,4.7539,0,0,0,0,0,0,4.6807,4.6828,4.7006,4.6929,4.6952,4.7009,4.7055,4.7064,4.7095,4.7156,4.7166,4.7116,4.7217,4.7234,4.7316,4.7351,4.7298,4.7304,4.7532,4.7535,4.7538,4.7548,0,0,0,0,0,0,4.68,4.6826,4.6857,4.6929,4.6956,4.7076,4.7057,4.7068,4.7107,4.7107,4.7179,4.7189,4.7217,4.7305,4.7323,4.7359,4.731,4.7529,4.7533,4.7537,4.7544,4.7551,4.7556,0,0,0,0,0,4.6791,4.6853,4.6858,4.6879,4.6996,4.7078,4.7093,4.7125,4.711,4.7142,4.7182,4.7187,4.7344,4.7314,4.7334,4.7372,4.7527,4.7532,4.7537,4.7542,4.755,4.7556,0,0,0,0,0,0,4.6781,4.6863,4.687,4.6956,4.701,4.7081,4.7122,4.7132,4.719,4.7188,4.7224,4.7241,4.7321,4.7354,4.732,4.7456,4.7434,4.7443,4.7431,4.7439,4.7444,4.7435,4.7316,0,0,0,0,0,4.6789,4.685,4.6917,4.6987,4.7014,4.7064,4.71,4.7121,4.7178,4.72,4.7246,4.73,4.7362,4.7402,4.7462,4.7549,4.7566,4.7586,4.7592,4.7596,4.7604,4.7655,4.7665,4.7556,4.7556,4.7556,0,0,4.6806,4.6858,4.6894,4.6987,4.7031,4.7093,4.7082,4.7147,4.7194,4.721,4.7291,4.7326,4.7389,4.7475,4.7514,4.7505,4.7638,4.7603,4.7606,4.7611,4.7661,4.7672,4.7681,4.7559,4.7559,4.7558,0,0,4.6869,4.6914,4.6979,4.7024,4.7092,4.7124,4.714,4.721,4.7235,4.7316,4.733,4.7385,4.7491,4.7536,4.7573,4.7656,4.7663,4.7674,4.7705,4.7754,4.7763,4.7771,4.7802,4.7813,4.7681,4.7681,4.7681,0,4.6882,4.6976,4.701,4.7076,4.7118,4.7136,4.7202,4.7244,4.7327,4.7355,4.7344,4.7478,4.7522,4.7619,4.764,4.7668,4.7688,4.7666,4.7759,4.7767,4.7775,4.7806,4.7817,4.7682,4.7682,4.7682,4.7682,0,4.6989,4.7054,4.7098,4.7181,4.7227,4.7292,4.7336,4.7379,4.7395,4.7429,4.7513,4.7567,4.7639,4.7664,4.768,4.7764,4.7757,4.7752,4.7731,4.7786,4.7816,4.7827,4.7684,4.7684,4.7683,4.7683,0,0,4.7049,4.7151,4.7167,4.7206,4.7283,4.7334,4.74,4.7473,4.7509,4.7566,4.7624,4.7714,4.7711,4.7752,4.7774,4.7817,4.7882,4.7807,4.7809,4.7821,4.7981,4.7985,4.7998,4.7887,4.7889,4.7891,4.7976,0,4.7123,4.7244,4.7277,4.738,4.7442,4.7461,4.7519,4.7573,4.7607,4.7664,4.7701,4.7765,4.7755,4.7781,4.7824,4.7865,4.7915,4.7859,4.7942,4.7944,4.7927,4.8013,4.8018,4.8095,4.7987,4.7989,4.7991,0,4.7224,4.7286,4.7395,4.7467,4.7494,4.7546,4.7616,4.767,4.7732,4.7754,4.7802,4.782,4.7891,4.7866,4.7964,4.7926,4.7962,4.7987,4.7991,4.8001,4.7972,4.8027,4.8121,4.8133,4.8009,4.8007,4.8006,0,4.726,4.737,4.745,4.7482,4.7567,4.7604,4.764,4.77,4.7742,4.7803,4.7831,4.7899,4.7937,4.7989,4.8025,4.8003,4.8122,4.8099,4.8143,4.8142,4.8168,4.8166,4.827,4.8188,4.8188,4.8187,4.8187,0,4.734,4.7406,4.7468,4.7517,4.7593,4.763,4.7704,4.7741,4.7795,4.7852,4.7872,4.7925,4.7969,4.8029,4.8057,4.8136,4.8152,4.8172,4.8179,4.8172,4.8169,4.8196,4.8193,4.8191,4.819,4.8189,4.8189,0,4.7393,4.7436,4.7525,4.7599,4.7619,4.7672,4.7735,4.7784,4.7819,4.7891,4.791,4.7965,4.8036,4.8078,4.8166,4.8186,4.8274,4.8277,4.8254,4.8257,4.8299,4.8296,4.8426,4.8446,4.8349,4.8349,4.835,0,4.7441,4.7493,4.7574,4.7614,4.7652,4.7717,4.7761,4.78,4.7845,4.792,4.796,4.8033,4.8093,4.8206,4.8254,4.8322,4.8329,4.837,4.8339,4.8331,4.8332,4.8329,4.8336,4.8375,4.8376,4.8377,4.8377,0,4.7524,4.7544,4.7607,4.7678,4.7731,4.7788,4.7845,4.7877,4.7926,4.7975,4.8049,4.8096,4.8189,4.8261,4.8334,4.8372,4.8384,4.8387,4.8401,4.8394,4.8379,4.839,4.827,4.8384,4.8383,4.8383,4.8382,4.8382,4.7578,4.7626,4.7691,4.7761,4.7809,4.7862,4.7913,4.7955,4.8018,4.8097,4.8116,4.8194,4.8256,4.8356,4.8395,4.8457,4.845,4.847,4.8475,4.848,4.8483,4.8368,4.847,4.847,4.847,4.847,4.847,0,4.7664,4.7707,4.7771,4.7852,4.7907,4.7914,4.7979,4.8024,4.8093,4.8151,4.821,4.8296,4.8367,4.8421,4.8493,4.8532,4.854,4.855,4.8549,4.8558,4.8484,4.8465,4.8543,4.8543,4.8543,4.8543,4.8543,4.8543,4.7715,4.7798,4.7826,4.7932,4.7975,4.8053,4.8089,4.8139,4.8185,4.8281,4.834,4.8375,4.8432,4.8509,4.8574,4.8588,4.8615,4.8625,4.864,4.857,4.8562,4.8555,4.8538,4.863,4.863,4.871,4.871,4.8711]}]]